Mattoon, IL

3:26 AM CDT on March 28, 2017 (GMT -0500)
Coles County Memorial

Weather History for KMTO - February, 2013

Change the Weather History Date:

Thursday, February 7, 2013

  Actual Average Record
Temperature  
Mean Temperature 44 °F 29 °F  
Max Temperature 56 °F 37 °F 64 °F (2017)
Min Temperature 31 °F 22 °F -13 °F (2014)
Degree Days  
Heating Degree Days 21 36  
Month to date heating degree days 244 255  
Since 1 July heating degree days 3282 3531  
Cooling Degree Days 0 0  
Month to date cooling degree days 0 0  
Year to date cooling degree days 0 0  
Moisture  
Dew Point 37 °F    
Average Humidity 77    
Maximum Humidity 100    
Minimum Humidity 54    
Precipitation  
Precipitation 0.18 in 0.07 in 1.68 in (1999)
Month to date precipitation 0.19 0.47  
Year to date precipitation 4.06 2.68  
Sea Level Pressure  
Sea Level Pressure 29.95 in    
Wind  
Wind Speed 11 mph (SSW)    
Max Wind Speed 24 mph    
Max Gust Speed 30 mph    
Visibility 6 miles    
Events Rain    
T = Trace of Precipitation, MM = Missing Value Source: NWS Daily Summary

Daily Weather History Graph

Daily Weather History Graph

Search for Another Location

Airport or City:

Trip Planner

Search our weather history database for the weather conditions in past years. The results will help you decide how hot, cold, wet, or windy it might be!

Date:

Astronomy

Feb. 07, 2013 Rise Set
Actual Time 6:54 AM CST 5:20 PM CST
Civil Twilight 6:26 AM CST 5:48 PM CST
Nautical Twilight 5:54 AM CST 6:20 PM CST
Astronomical Twilight 5:23 AM CST 6:52 PM CST
Moon 4:33 AM CST (2/7) 2:45 PM CST (2/7)
Length of Visible Light 11h 22m
Length of Day
10h 26m
Waning Crescent, 9% of the Moon is Illuminated
Feb 7
Waning Crescent
Feb 10
New
Feb 17
First Quarter
Feb 25
Full
Mar 4
Last Quarter

Hourly Weather History & Observations

Time (CST) Temp. Windchill Dew Point Humidity Pressure Visibility Wind Dir Wind Speed Gust Speed Precip Events Conditions
12:53 AM 32.0 °F 24.2 °F 28.9 °F 88% 30.11 in 6.0 mi SSE 9.2 mph - N/A   Clear
1:53 AM 30.9 °F 24.3 °F 28.0 °F 89% 30.11 in 6.0 mi SSE 6.9 mph - N/A   Clear
2:53 AM 32.0 °F 24.8 °F 28.9 °F 88% 30.08 in 5.0 mi SSE 8.1 mph - N/A   Clear
3:53 AM 33.1 °F 24.9 °F 28.9 °F 85% 30.06 in 6.0 mi SSE 10.4 mph - N/A   Clear
4:53 AM 34.0 °F 26.6 °F 30.0 °F 85% 30.06 in 7.0 mi SSE 9.2 mph - N/A   Clear
5:53 AM 34.0 °F 25.0 °F 30.0 °F 85% 30.04 in 6.0 mi SSE 12.7 mph - N/A   Clear
6:53 AM 34.0 °F 26.0 °F 30.0 °F 85% 30.02 in 7.0 mi SSE 10.4 mph 19.6 mph N/A   Clear
7:53 AM 35.1 °F 29.3 °F 30.9 °F 85% 30.03 in 5.0 mi SE 6.9 mph - N/A   Clear
8:53 AM 39.0 °F 32.8 °F 30.9 °F 73% 30.02 in 7.0 mi SSE 9.2 mph - N/A   Clear
9:53 AM 43.0 °F 36.4 °F 32.0 °F 65% 30.00 in 10.0 mi SSE 12.7 mph - N/A   Clear
10:53 AM 46.9 °F - 34.0 °F 61% 29.98 in 10.0 mi South 10.4 mph - N/A   Clear
11:53 AM 51.1 °F - 37.0 °F 59% 29.94 in 10.0 mi South 10.4 mph - N/A   Partly Cloudy
12:53 PM 53.1 °F - 37.9 °F 57% 29.90 in 10.0 mi SSE 9.2 mph - N/A   Clear
1:53 PM 55.0 °F - 39.0 °F 55% 29.88 in 10.0 mi SSW 9.2 mph - N/A   Mostly Cloudy
2:53 PM 55.0 °F - 39.9 °F 57% 29.86 in 10.0 mi SSW 8.1 mph - N/A   Clear
3:53 PM 54.0 °F - 41.0 °F 62% 29.83 in 10.0 mi South 5.8 mph - N/A   Mostly Cloudy
4:48 PM 48.2 °F - 46.4 °F 93% 29.86 in 2.5 mi West 10.4 mph - 0.03 in Rain Rain
4:53 PM 48.0 °F - 46.0 °F 93% 29.87 in 2.5 mi WNW 9.2 mph - 0.04 in Rain Light Rain
5:09 PM 48.2 °F - 46.4 °F 93% 29.86 in 3.0 mi West 6.9 mph - 0.01 in Rain Light Rain
5:53 PM 46.9 °F - 45.0 °F 93% 29.87 in 4.0 mi West 8.1 mph - 0.04 in Rain Light Rain
6:30 PM 44.6 °F 40.7 °F 44.6 °F 100% 29.86 in 3.0 mi West 6.9 mph - 0.06 in Rain Rain
6:49 PM 44.6 °F 38.8 °F 44.6 °F 100% 29.86 in 4.0 mi WNW 11.5 mph - 0.07 in Rain Rain
6:53 PM 44.1 °F 37.7 °F 44.1 °F 100% 29.88 in 4.0 mi WNW 12.7 mph - 0.08 in Rain Rain
7:53 PM 42.1 °F 34.9 °F 42.1 °F 100% 29.88 in 5.0 mi NW 13.8 mph - 0.02 in Rain Light Rain
8:53 PM 39.9 °F 30.5 °F 39.0 °F 97% 29.90 in 7.0 mi NW 19.6 mph - 0.00 in Rain Light Rain
9:53 PM 37.9 °F 28.9 °F 37.0 °F 97% 29.93 in 7.0 mi WNW 16.1 mph - 0.00 in   Overcast
10:53 PM 37.0 °F 25.9 °F 36.0 °F 96% 29.95 in 6.0 mi NW 23.0 mph 29.9 mph N/A   Overcast
11:53 PM 36.0 °F 26.0 °F 35.1 °F 97% 29.96 in 8.0 mi NW 17.3 mph - N/A   Overcast